Regional Weather Roundup
Issued by NWS

Home | Current Version | Previous Version | Text Only | Print | Product List | Glossary Off
Versions: 1 2 3 4 5 6 7 8 9 10 11 12 13 14 15 16 17 18 19 20 21 22 23 24 25 26 27 28 29 30 31 32 33 34 35 36 37 38 39 40 41 42 43 44 45 46 47 48 49 50

000
ASUS43 KIND 230159
RWRIN

WEATHER ROUNDUP FOR INDIANA
NATIONAL WEATHER SERVICE INDIANAPOLIS IN
1000 PM EDT WED OCT 22 2014

NOTE: "FAIR" INDICATES FEW OR NO CLOUDS BELOW 12,000 FEET WITH NO
SIGNIFICANT WEATHER AND/OR OBSTRUCTIONS TO VISIBILITY.

* - STATION DOES NOT REPORT WEATHER SUCH AS PRECIPITATION OR FOG.

+ - STATION NOT QUALITY CONTROLLED BY THE NATIONAL WEATHER SERVICE.
    USE DATA WITH CAUTION...ESPECIALLY DEWPOINT AND RELATIVE
    HUMIDITY OBSERVATIONS.

INZ001>003-010>013-019-020-230300-
NORTHWEST INDIANA

CITY           SKY/WX    TMP DP  RH WIND       PRES   REMARKS
VALPARAISO     NOT AVBL

$$

LMZ046-743>745-230300-
SOUTHERN LAKE MICHIGAN

STATION/POSITION TIME  TEMP WIND        PRES
                       AIR  DIR/SP/G
                 (UTC) (F)  (DEG/KT/KT) (MB)
MICHIGAN CITY    0100   47   70/  9/ 10   N/A

$$

INZ004-005-014>016-021>024-230300-
NORTH CENTRAL INDIANA

CITY           SKY/WX    TMP DP  RH WIND       PRES   REMARKS
GOSHEN         CLEAR     38  36  92 E5        30.28F
SOUTH BEND     CLEAR     41  36  82 CALM      30.29S

$$

INZ006>009-017-018-025>027-230300-
NORTHEAST INDIANA

CITY           SKY/WX    TMP DP  RH WIND       PRES   REMARKS
ANGOLA *+      CLEAR     39  27  60 CALM      30.29S
FORT WAYNE     CLEAR     39  36  89 E3        30.30S

$$

INZ028-029-035-036-043>045-051>053-230300-
WEST CENTRAL INDIANA

CITY           SKY/WX    TMP DP  RH WIND       PRES   REMARKS
GREENCASTLE +  CLEAR     45  39  81 CALM      30.26S
LAFAYETTE      CLEAR     42  38  85 CALM      30.26S
TERRE HAUTE    CLEAR     42  39  89 CALM      30.25S

$$

INZ030>032-037>040-046>048-054>057-064-065-230300-
CENTRAL INDIANA

CITY           SKY/WX    TMP DP  RH WIND       PRES   REMARKS
INDIANAPOLIS   CLEAR     49  39  68 E5        30.25S
-EAGLE CREEK   CLEAR     43  40  89 CALM      30.25S
KOKOMO *+      CLEAR     43  37  81 E7        30.27S
MT COMFORT *+  CLEAR     43  39  87 E5        30.27S
SHELBYVILLE    CLEAR     43  38  82 E7        30.26S

$$

INZ033-034-041-042-049-050-058-059-230300-
EAST CENTRAL INDIANA

CITY           SKY/WX    TMP DP  RH WIND       PRES   REMARKS
MUNCIE         CLEAR     41  38  89 E6        30.27F

$$

INZ060-061-067>069-081>083-085>088-230300-
SOUTHWEST INDIANA

CITY           SKY/WX    TMP DP  RH WIND       PRES   REMARKS
EVANSVILLE     CLEAR     48  42  80 CALM      30.24S
HUNTINGBURG *+ CLEAR     45  39  81 E6        30.24F

$$

INZ062-063-066-070>080-084-089>092-230300-
SOUTH CENTRAL AND SOUTHEAST INDIANA

CITY           SKY/WX    TMP DP  RH WIND       PRES   REMARKS
BLOOMINGTON    CLEAR     39  37  92 CALM      30.25F
SEYMOUR +      CLEAR     45  39  81 CALM      30.26S

$$




USA.gov is the U.S. government's official web portal to all federal, state and local government web resources and services.